#timestamp,LO_Frequency,Hit 
1500235215.3,286047026.3,N
1500235235.1,286047026.5,N
1500235255.8,286047025.9,N
1500235275.7,286047028.4,N
1500235295.5,286047028.1,N
1500235315.3,286047026.8,N
1500235335.2,286047023.9,N
1500235355.9,286047024.2,N
1500235375.7,286047025.8,N
1500235395.6,286047024.5,N
1500235415.4,286047024.6,N
1500235435.2,286047023.8,N
1500235455.1,286047026.1,N
1500235456.0,286047026.1,N
1500235475.8,286047026.4,N
1500235495.6,286047024.7,N
1500235515.5,286047022.9,N
1500235535.3,286047024.8,N
1500235555.1,286047024.1,N
1500235575.8,286047024.3,N
1500235595.7,286047026.2,N
1500235615.5,286047026.7,N
1500235635.3,286047024.4,N
1500235655.2,286047024.2,N
1500235675.9,286047025.5,N
1500235695.7,286047028.2,N
1500235715.6,286047031.6,N
1500235735.4,286047029.5,N
1500235755.2,286047026.4,N
1500235775.1,286047025.8,N
1500235776.0,286047025.8,N
1500235795.8,286047024.9,N
1500235815.6,286047024.2,N
1500235835.5,286047025.5,N
1500235855.3,286047025.8,N
1500235875.1,286047025.5,N
1500235895.9,286047028.3,N
1500235915.7,286047026.5,N
1500235935.5,286047026.7,N
1500235955.3,286047024.9,N
1500235975.2,286047025.6,N
1500235995.0,286047025.8,N
1500235995.9,286047025.8,N
1500236015.7,286047026.7,N
1500236035.6,286047026.3,N
1500236055.4,286047025.8,N
1500236075.2,286047025.9,N
1500236095.1,286047027.7,N
1500236096.0,286047027.7,N
1500236115.8,286047029.6,N
1500236135.6,286047028.0,N
1500236155.5,286047027.9,N
1500236175.3,286047025.3,N
1500236195.1,286047025.5,N
1500236215.9,286047025.6,N
1500236235.7,286047026.8,N
1500236255.5,286047026.4,N
1500236275.4,286047025.7,N
1500236295.2,286047029.3,N
1500236315.0,286047027.7,N
1500236315.9,286047027.7,N
1500236335.8,286047029.5,N
1500236355.6,286047028.4,N
1500236375.4,286047026.0,N
1500236395.3,286047025.7,N
1500236415.1,286047023.9,N
1500236416.0,286047023.9,N
1500236435.8,286047025.9,N
1500236455.7,286047027.1,N
1500236475.5,286047029.4,N
1500236495.3,286047029.2,N
1500236515.2,286047029.6,N
1500236535.9,286047027.6,N
1500236555.7,286047029.7,N
1500236575.5,286047028.0,N
1500236595.4,286047028.0,N
1500236615.2,286047027.5,N
1500236635.0,286047027.7,N
1500236635.9,286047027.7,N
1500236655.8,286047027.7,N
1500236675.6,286047027.4,N
1500236695.4,286047027.3,N
1500236715.3,286047031.2,N
1500236735.1,286047029.9,N
1500236755.8,286047029.7,N
1500236775.7,286047029.9,N
1500236795.5,286047027.7,N
1500236815.3,286047031.1,N
1500236835.2,286047028.8,N
1500236855.0,286047030.0,N
1500236855.9,286047030.0,N
1500236875.7,286047029.1,N
1500236895.6,286047028.5,N
1500236915.4,286047027.1,N
1500236935.2,286047028.5,N
1500236955.1,286047029.7,N
1500236956.0,286047029.7,N
1500236975.8,286047029.4,N
1500236995.6,286047031.1,N
1500237015.5,286047027.7,N
1500237035.3,286047028.0,N
1500237055.1,286047029.1,N
1500237075.9,286047028.6,N
1500237095.7,286047028.7,N
1500237115.5,286047031.6,N
1500237135.4,286047031.6,N
1500237155.2,286047031.4,N
1500237175.0,286047031.3,N
1500237175.9,286047031.3,N
1500237195.7,286047031.6,N
1500237215.6,286047029.4,N
1500237235.4,286047028.9,N
1500237255.2,286047030.9,N
1500237275.1,286047030.7,N
1500237276.0,286047030.7,N
1500237295.8,286047032.0,N
1500237315.6,286047032.6,N
1500237335.5,286047032.7,N
1500237355.3,286047033.0,N
1500237375.1,286047032.1,N
1500237395.9,286047032.9,N
1500237415.7,286047034.4,N
1500237435.5,286047032.0,N
1500237455.4,286047030.9,N
1500237475.2,286047033.1,N
1500237495.0,286047031.8,N
1500237495.9,286047031.8,N
1500237515.8,286047033.8,N
1500237535.6,286047035.6,N
1500237555.4,286047035.8,N
1500237575.2,286047033.8,N
1500237595.1,286047036.0,N
1500237596.0,286047036.0,N
1500237615.8,286047033.3,N
1500237635.6,286047032.3,N
1500237655.5,286047034.6,N
1500237675.3,286047033.7,N
1500237695.1,286047035.5,N
1500237715.9,286047035.0,N
1500237735.7,286047035.0,N
1500237755.5,286047033.9,N
1500237775.4,286047035.3,N
1500237795.2,286047032.2,N
1500237815.0,286047038.0,N
1500237815.9,286047038.0,N
1500237835.8,286047037.7,N
1500237855.6,286047033.5,N
1500237875.4,286047035.2,N
1500237895.3,286047035.5,N
1500237915.1,286047035.2,N
1500237916.0,286047035.2,N
1500237935.8,286047035.1,N
1500237955.7,286047037.5,N
1500237975.5,286047037.7,N
1500237995.3,286047036.4,N
1500238015.2,286047033.9,N
1500238035.9,286047035.8,N
1500238055.7,286047036.1,N
1500238075.6,286047035.1,N
1500238095.4,286047036.9,N
1500238115.2,286047038.7,N
1500238135.0,286047037.2,N
1500238136.0,286047037.2,N
1500238155.8,286047038.8,N
1500238175.6,286047035.3,N
1500238195.4,286047033.8,N
1500238215.3,286047037.3,N
1500238235.1,286047037.1,N
1500238255.8,286047037.0,N
1500238275.7,286047037.4,N
1500238295.5,286047039.2,N
1500238315.3,286047038.5,N
1500238335.2,286047037.7,N
1500238355.9,286047035.7,N
1500238375.7,286047036.7,N
1500238395.6,286047039.6,N
1500238415.4,286047039.6,N
1500238435.2,286047034.9,N
1500238455.1,286047037.3,N
1500238456.0,286047037.3,N
1500238475.8,286047037.4,N
1500238495.6,286047035.6,N
1500238515.5,286047038.8,N
1500238535.3,286047041.0,N
1500238555.1,286047038.1,N
1500238575.8,286047038.3,N
1500238595.7,286047041.0,N
1500238615.5,286047038.1,N
1500238635.3,286047038.9,N
1500238655.2,286047042.5,N
1500238675.0,286047041.0,N
1500238675.9,286047041.0,N
1500238695.7,286047042.1,N
1500238715.6,286047041.0,N
1500238735.4,286047039.3,N
1500238755.2,286047036.5,N
1500238775.1,286047040.0,N
1500238776.0,286047040.0,N
1500238795.8,286047038.5,N
